Regional Weather Roundup
Issued by NWS Sioux Falls, SD

Home | Current Version | Previous Version | Text Only | Print | Product List | Glossary On
Versions: 1 2 3 4 5 6 7 8 9 10 11 12 13 14 15 16 17 18 19 20 21 22 23 24 25 26 27 28 29 30 31 32 33 34 35 36 37 38 39 40 41 42 43 44 45 46 47 48 49 50
274
ASUS43 KFSD 242010
RWRFSD

WEATHER ROUNDUP FOR SE SOUTH DAKOTA/SW MINNESOTA/NW IOWA
NATIONAL WEATHER SERVICE SIOUX FALLS SD
300 PM CDT SAT JUN 24 2017

NOTE: "FAIR" INDICATES FEW OR NO CLOUDS BELOW 12,000 FEET WITH NO
SIGNIFICANT WEATHER AND OR OBSTRUCTIONS TO VISIBILITY.


SDZ038>040-050-052>070-242100-
SOUTHEAST SOUTH DAKOTA

CITY           SKY/WX    TMP DP  RH WIND       PRES   REMARKS
BROOKINGS      PTSUNNY   64  41  42 NW24G30   30.13R
CHAMBERLAIN    MOSUNNY   74  39  28 NW24G32   30.18F
HURON          PTSUNNY   67  41  38 NW23G37   30.14S
MADISON        FAIR      64  41  42 NW18G36   30.14R
MITCHELL       MOSUNNY   74  35  24 NW23G36   30.15R
SIOUX FALLS    PTSUNNY   70  42  36 NW22G35   30.11S
WINNER         FAIR      76  33  21 NW24G35   30.19F
YANKTON        SUNNY     75  38  26 NW29G38   30.14S
$$

MNZ071-072-080-081-089-090-097-098-242100-
SOUTHWEST MINNESOTA

CITY           SKY/WX    TMP DP  RH WIND       PRES   REMARKS
FAIRMONT       PTSUNNY   69  43  38 NW24G32   30.05R
JACKSON        PTSUNNY   68  39  34 NW20G36   30.08R
LUVERNE        SUNNY     68  32  26 NW18G33   30.12R
MARSHALL       PTSUNNY   63  40  42 NW22G28   30.09S
MONTEVIDEO     MOSUNNY   66  43  42 N15G29    30.08S
PIPESTONE      MOSUNNY   64  39  39 NW24G35   30.12S
REDWOOD FALLS  MOSUNNY   65  39  38 NW23G33   30.06R
TRACY          MOSUNNY   66  42  41 NW20G29   30.10S
WINDOM         MOSUNNY   66  39  37 NW23G30   30.09R
WORTHINGTON    PTSUNNY   65  42  43 NW23G35   30.11R
$$

IAZ001>003-012>014-020>022-031-032-NEZ013-014-SDZ071-242100-
NORTHWEST IOWA

CITY           SKY/WX    TMP DP  RH WIND       PRES   REMARKS
CHEROKEE       PTSUNNY   71  38  30 NW20G30   30.11S
DENISON        PTSUNNY   75  36  23 W18G26    30.13F
ESTHERVILLE    MOSUNNY   70  41  34 NW28G39   30.05S
LE MARS        PTSUNNY   72  39  30 NW18G31   30.13R
ORANGE CITY    MOSUNNY   73  43  33 NW26G35   30.11S
SHELDON        MOSUNNY   72  39  30 NW22G36   30.09R
SIOUX CITY     PTSUNNY   78  40  25 NW20      30.11R
SPENCER        PTSUNNY   71  39  31 NW28G40   30.08S
STORM LAKE     CLOUDY    72  36  26 NW22G31   30.11S
$$

ABBREVIATIONS USED IN REMARKS
   TC - TEMPERATURE IN CELSIUS
  WCI - WIND CHILL INDEX
   HX - HEAT INDEX
  VSB - VISIBILITY





USA.gov is the U.S. government's official web portal to all federal, state and local government web resources and services.